Tracking 29489 objects as of 9-Sep-2024
HD Live streaming from Space Station
objects crossing your sky now

STTW-T1

Track STTW-T1 now!
10-day predictions
STTW-T1 is classified as:


NORAD ID: 14670
Int'l Code: 1984-008A
Perigee: 465.2 km
Apogee: 6,292.8 km
Inclination: 36.1 °
Period: 159.7 minutes
Semi major axis: 9749 km
RCS: 3.9341 m2 (large)
Launch date: January 29, 1984
Source: People's Republic of China (PRC)
Launch site: Xichang Space Center, China (XSC)
Your satellite tracking list
Your tracking list is empty




NASA's NSSDC Master Catalog

Two Line Element Set (TLE):
1 14670U 84008A   24252.91327510  .00004363  00000-0  19606-2 0  9991
2 14670  36.1394 345.9321 2988501 199.9687 145.3782  9.01770350325669
Source of the keplerian elements: AFSPC